Princeton, MN

7:12 AM CST on December 09, 2019 (GMT -0600)
Princeton Municipal

Weather History for KPNM - May, 2019

Change the Weather History Date:

Monday, May 27, 2019

  Actual Average Record
Temperature  
Mean Temperature 52 °F -  
Max Temperature 57 °F 67 °F 91 °F (2018)
Min Temperature 46 °F 44 °F 35 °F (2003)
Degree Days  
Heating Degree Days 14    
Growing Degree Days 2 (Base 50)    
Moisture  
Dew Point 45 °F    
Average Humidity 85    
Maximum Humidity 94    
Minimum Humidity 71    
Precipitation  
Precipitation 0.00 in - - ()
Sea Level Pressure  
Sea Level Pressure 29.92 in    
Wind  
Wind Speed 10 mph (NNE)    
Max Wind Speed 16 mph    
Max Gust Speed 23 mph    
Visibility 10 miles    
Events Rain    
Averages and records for this station are not official NWS values.
T = Trace of Precipitation, MM = Missing Value Source: NWS Daily Summary

Daily Weather History Graph

Daily Weather History Graph

Search for Another Location

Airport or City:

Astronomy

May. 27, 2019 Rise Set
Actual Time 5:32 AM CDT 8:51 PM CDT
Civil Twilight 4:56 AM CDT 9:27 PM CDT
Nautical Twilight 4:08 AM CDT 10:15 PM CDT
Astronomical Twilight 3:09 AM CDT 11:15 PM CDT
Moon 2:42 AM CDT (5/27) 1:40 PM CDT (5/27)
Length of Visible Light 16h 31m
Length of Day
15h 19m
Last Quarter, 40% of the Moon is Illuminated
May 27
Last Quarter
Jun 3
New
Jun 10
First Quarter
Jun 17
Full
Jun 25
Last Quarter

Hourly Weather History & Observations

Time (CDT) Temp. Windchill Dew Point Humidity Pressure Visibility Wind Dir Wind Speed Gust Speed Precip Events Conditions
12:15 AM 57.2 °F - 51.8 °F 82% 30.04 in 10.0 mi NNE 12.7 mph 17.3 mph N/A   Scattered Clouds
12:16 AM 57.2 °F - 51.8 °F 82% 30.04 in 10.0 mi NNE 13.8 mph 17.3 mph N/A   Scattered Clouds
12:35 AM 55.4 °F - 48.2 °F 77% 30.04 in 10.0 mi NNE 9.2 mph - N/A   Clear
12:55 AM 55.4 °F - 46.4 °F 72% 30.04 in 10.0 mi NNE 11.5 mph 18.4 mph N/A   Clear
12:56 AM 55.4 °F - 46.4 °F 72% 30.04 in 10.0 mi NNE 10.4 mph 18.4 mph N/A   Clear
1:15 AM 53.6 °F - 46.4 °F 77% 30.04 in 10.0 mi NNE 10.4 mph - N/A   Clear
1:16 AM 53.6 °F - 46.4 °F 77% 30.04 in 10.0 mi NNE 10.4 mph - N/A   Clear
1:35 AM 53.6 °F - 44.6 °F 72% 30.03 in 10.0 mi NNE 10.4 mph - N/A   Clear
1:55 AM 51.8 °F - 44.6 °F 76% 30.02 in 10.0 mi NNE 4.6 mph - N/A   Clear
1:56 AM 51.8 °F - 44.6 °F 76% 30.02 in 10.0 mi NNE 5.8 mph - N/A   Clear
2:15 AM 51.8 °F - 44.6 °F 76% 30.04 in 10.0 mi NE 5.8 mph - N/A   Clear
2:16 AM 51.8 °F - 44.6 °F 76% 30.04 in 10.0 mi NE 5.8 mph - N/A   Clear
2:35 AM 51.8 °F - 44.6 °F 76% 30.04 in 10.0 mi NE 5.8 mph - N/A   Clear
2:55 AM 51.8 °F - 44.6 °F 76% 30.02 in 10.0 mi NNE 9.2 mph - N/A   Clear
3:15 AM 51.8 °F - 44.6 °F 76% 30.03 in 10.0 mi NE 8.1 mph - N/A   Clear
3:35 AM 51.8 °F - 44.6 °F 76% 30.02 in 10.0 mi NNE 8.1 mph - N/A   Clear
3:55 AM 50.0 °F - 44.6 °F 82% 30.00 in 10.0 mi NNE 8.1 mph - N/A   Scattered Clouds
3:56 AM 50.0 °F - 44.6 °F 82% 30.00 in 10.0 mi NE 8.1 mph - N/A   Scattered Clouds
4:15 AM 50.0 °F - 44.6 °F 82% 29.98 in 10.0 mi NE 9.2 mph 16.1 mph N/A   Scattered Clouds
4:35 AM 50.0 °F - 42.8 °F 76% 29.98 in 10.0 mi NE 8.1 mph - N/A   Clear
4:55 AM 50.0 °F - 42.8 °F 76% 29.98 in 10.0 mi NE 6.9 mph - N/A   Clear
4:56 AM 50.0 °F - 42.8 °F 76% 29.98 in 10.0 mi NE 4.6 mph - N/A   Clear
5:15 AM 50.0 °F - 42.8 °F 76% 29.98 in 10.0 mi NE 6.9 mph - N/A   Clear
5:35 AM 50.0 °F - 42.8 °F 76% 29.98 in 10.0 mi NE 6.9 mph - N/A   Scattered Clouds
5:55 AM 50.0 °F - 42.8 °F 76% 29.97 in 10.0 mi NE 6.9 mph - N/A   Scattered Clouds
5:56 AM 50.0 °F - 42.8 °F 76% 29.97 in 10.0 mi NE 6.9 mph - N/A   Clear
6:15 AM 50.0 °F - 42.8 °F 76% 29.96 in 10.0 mi NE 8.1 mph - N/A   Clear
6:35 AM 50.0 °F - 42.8 °F 76% 29.96 in 10.0 mi NNE 9.2 mph - N/A   Clear
6:36 AM 50.0 °F - 42.8 °F 76% 29.96 in 10.0 mi NE 9.2 mph - N/A   Clear
6:55 AM 51.8 °F - 42.8 °F 71% 29.97 in 10.0 mi NE 6.9 mph - N/A   Clear
6:56 AM 51.8 °F - 42.8 °F 71% 29.97 in 10.0 mi NE 5.8 mph - N/A   Clear
7:15 AM 51.8 °F - 42.8 °F 71% 29.98 in 10.0 mi NE 6.9 mph - N/A   Clear
7:35 AM 51.8 °F - 42.8 °F 71% 29.97 in 10.0 mi NNE 9.2 mph - N/A   Clear
7:55 AM 51.8 °F - 44.6 °F 76% 29.95 in 10.0 mi NE 9.2 mph 17.3 mph N/A   Scattered Clouds
7:56 AM 51.8 °F - 44.6 °F 76% 29.95 in 10.0 mi NE 8.1 mph 17.3 mph N/A   Scattered Clouds
8:15 AM 51.8 °F - 44.6 °F 76% 29.94 in 10.0 mi NNE 6.9 mph 16.1 mph N/A   Light Drizzle
8:35 AM 51.8 °F - 44.6 °F 76% 29.95 in 10.0 mi ENE 8.1 mph - N/A   Scattered Clouds
8:36 AM 51.8 °F - 44.6 °F 76% 29.95 in 10.0 mi NE 9.2 mph - N/A   Scattered Clouds
8:55 AM 51.8 °F - 46.4 °F 82% 29.95 in 10.0 mi East 8.1 mph - N/A   Drizzle
9:15 AM 51.8 °F - 46.4 °F 82% 29.95 in 10.0 mi ENE 5.8 mph - N/A Rain Light Rain
9:35 AM 51.8 °F - 46.4 °F 82% 29.94 in 10.0 mi NE 6.9 mph - N/A Rain Rain
9:36 AM 51.8 °F - 46.4 °F 82% 29.94 in 10.0 mi NE 6.9 mph - N/A Rain Rain
9:55 AM 50.0 °F - 46.4 °F 87% 29.93 in 10.0 mi NNE 9.2 mph - N/A Rain Rain
10:15 AM 50.0 °F - 46.4 °F 87% 29.92 in 10.0 mi NNE 8.1 mph - N/A Rain Rain
10:35 AM 50.0 °F - 46.4 °F 87% 29.91 in 10.0 mi NNE 8.1 mph - N/A Rain Rain
10:55 AM 48.2 °F - 46.4 °F 93% 29.91 in 10.0 mi NE 9.2 mph - N/A Rain Rain
11:15 AM 48.2 °F - 46.4 °F 93% 29.90 in 10.0 mi NNE 10.4 mph - N/A Rain Rain
11:16 AM 48.2 °F - 46.4 °F 93% 29.90 in 10.0 mi NNE 8.1 mph - N/A Rain Rain
11:35 AM 48.2 °F - 46.4 °F 93% 29.90 in 10.0 mi NNE 12.7 mph - N/A Rain Light Rain
11:36 AM 48.2 °F - 46.4 °F 93% 29.90 in 10.0 mi NNE 10.4 mph - N/A Rain Light Rain
11:55 AM 48.2 °F - 46.4 °F 93% 29.90 in 10.0 mi NNE 11.5 mph 17.3 mph N/A Rain Rain
12:15 PM 48.2 °F - 46.4 °F 93% 29.89 in 10.0 mi NNE 12.7 mph 20.7 mph N/A Rain Rain
12:16 PM 48.2 °F - 46.4 °F 93% 29.89 in 10.0 mi NNE 15.0 mph 20.7 mph N/A Rain Rain
12:35 PM 48.2 °F - 46.4 °F 93% 29.89 in 10.0 mi North 13.8 mph - N/A Rain Rain
12:55 PM 48.2 °F - 46.4 °F 93% 29.88 in 10.0 mi NNE 13.8 mph 23.0 mph N/A Rain Rain
12:56 PM 48.2 °F - 46.4 °F 93% 29.88 in 10.0 mi North - - N/A Rain Rain
1:15 PM 48.2 °F - 46.4 °F 93% 29.88 in 10.0 mi NNE 13.8 mph 20.7 mph N/A Rain Rain
1:35 PM 48.2 °F - 46.4 °F 93% 29.87 in 10.0 mi NNE 15.0 mph 20.7 mph N/A Rain Rain
1:55 PM 48.2 °F - 46.4 °F 93% 29.86 in 10.0 mi NNE 12.7 mph 20.7 mph N/A Rain Rain
1:56 PM 48.2 °F - 46.4 °F 93% 29.86 in 10.0 mi NNE 11.5 mph 20.7 mph N/A Rain Rain
2:15 PM 48.2 °F - 46.4 °F 93% 29.86 in 10.0 mi NNE 13.8 mph 20.7 mph N/A Rain Rain
2:35 PM 48.2 °F - 46.4 °F 93% 29.85 in 10.0 mi NNE 11.5 mph 19.6 mph N/A Rain Rain
2:55 PM 48.2 °F - 46.4 °F 93% 29.85 in 10.0 mi North 12.7 mph 19.6 mph N/A Rain Light Rain
3:15 PM 48.2 °F - 46.4 °F 93% 29.84 in 10.0 mi North 16.1 mph - N/A Rain Light Rain
3:35 PM 48.2 °F - 46.4 °F 93% 29.84 in 10.0 mi NNE 13.8 mph 19.6 mph N/A Rain Light Rain
3:36 PM 48.2 °F - 46.4 °F 93% 29.83 in 10.0 mi NNE 12.7 mph 19.6 mph N/A Rain Light Rain
3:55 PM 48.2 °F - 46.4 °F 93% 29.82 in 10.0 mi North 11.5 mph - N/A Rain Light Rain
4:15 PM 50.0 °F - 48.2 °F 94% 29.82 in 10.0 mi NNE 11.5 mph 17.3 mph N/A Rain Light Rain
4:35 PM 50.0 °F - 48.2 °F 94% 29.81 in 10.0 mi NNE 10.4 mph - N/A Rain Rain
4:36 PM 50.0 °F - 48.2 °F 94% 29.81 in 10.0 mi NNE 10.4 mph - N/A Rain Rain
4:55 PM 51.8 °F - 48.2 °F 88% 29.80 in 10.0 mi NNE 15.0 mph 23.0 mph N/A Rain Light Rain
5:15 PM 51.8 °F - 48.2 °F 88% 29.81 in 10.0 mi North 12.7 mph 20.7 mph N/A Rain Light Rain
5:35 PM 51.8 °F - 48.2 °F 88% 29.82 in 10.0 mi North 11.5 mph - N/A   Overcast
5:55 PM 50.0 °F - 46.4 °F 87% 29.84 in 10.0 mi North 12.7 mph 19.6 mph N/A   Overcast
5:56 PM 50.0 °F - 46.4 °F 87% 29.84 in 10.0 mi North 12.7 mph 19.6 mph N/A   Overcast
6:15 PM 48.2 °F - 46.4 °F 93% 29.85 in 10.0 mi North 12.7 mph 19.6 mph N/A   Overcast
6:16 PM 48.2 °F - 46.4 °F 93% 29.85 in 10.0 mi North 11.5 mph 19.6 mph N/A   Overcast
6:35 PM 48.2 °F - 46.4 °F 93% 29.84 in 10.0 mi North 11.5 mph 16.1 mph N/A   Overcast
6:55 PM 48.2 °F - 46.4 °F 93% 29.83 in 10.0 mi North 10.4 mph - N/A   Overcast
6:56 PM 48.2 °F - 46.4 °F 93% 29.84 in 10.0 mi North 11.5 mph 17.3 mph N/A   Overcast
7:15 PM 48.2 °F - 46.4 °F 93% 29.85 in 10.0 mi NNE 12.7 mph 19.6 mph N/A   Overcast
7:16 PM 48.2 °F - 46.4 °F 93% 29.85 in 10.0 mi NNE 13.8 mph 19.6 mph N/A   Overcast
7:35 PM 48.2 °F - 46.4 °F 93% 29.85 in 10.0 mi North 10.4 mph 17.3 mph N/A   Overcast
7:55 PM 48.2 °F - 46.4 °F 93% 29.85 in 10.0 mi NNE 10.4 mph - N/A   Overcast
8:15 PM 48.2 °F - 46.4 °F 93% 29.86 in 10.0 mi North 12.7 mph - N/A   Overcast
8:35 PM 48.2 °F - 46.4 °F 93% 29.87 in 10.0 mi North 13.8 mph - N/A   Overcast
8:36 PM 48.2 °F - 46.4 °F 93% 29.87 in 10.0 mi NNE 12.7 mph 16.1 mph N/A   Overcast
8:55 PM 48.2 °F - 44.6 °F 87% 29.87 in 10.0 mi North 11.5 mph 16.1 mph N/A   Overcast
9:15 PM 48.2 °F - 44.6 °F 87% 29.88 in 10.0 mi North 11.5 mph 19.6 mph N/A   Overcast
9:35 PM 48.2 °F - 44.6 °F 87% 29.89 in 10.0 mi NNW 9.2 mph - N/A   Overcast
9:36 PM 48.2 °F - 44.6 °F 87% 29.89 in 10.0 mi North 6.9 mph - N/A   Overcast
9:55 PM 48.2 °F - 44.6 °F 87% 29.90 in 10.0 mi North 16.1 mph 21.9 mph N/A   Overcast
9:56 PM 48.2 °F - 44.6 °F 87% 29.90 in 10.0 mi North 16.1 mph 21.9 mph N/A   Overcast
10:15 PM 48.2 °F - 44.6 °F 87% 29.90 in 10.0 mi North 9.2 mph 16.1 mph N/A   Overcast
10:16 PM 48.2 °F - 44.6 °F 87% 29.90 in 10.0 mi North 10.4 mph 18.4 mph N/A   Overcast
10:35 PM 46.4 °F 42.4 °F 42.8 °F 87% 29.90 in 10.0 mi North 8.1 mph - N/A   Overcast
10:55 PM 46.4 °F 41.9 °F 42.8 °F 87% 29.90 in 10.0 mi North 9.2 mph 17.3 mph N/A   Overcast
11:15 PM 46.4 °F 43.5 °F 42.8 °F 87% 29.90 in 10.0 mi North 5.8 mph - N/A   Overcast
11:16 PM 46.4 °F 43.5 °F 42.8 °F 87% 29.90 in 10.0 mi North 5.8 mph - N/A   Overcast
11:35 PM 46.4 °F 42.4 °F 42.8 °F 87% 29.89 in 10.0 mi North 8.1 mph - N/A   Overcast
11:55 PM 46.4 °F 41.9 °F 42.8 °F 87% 29.89 in 10.0 mi North 9.2 mph - N/A   Overcast